When you browse on this site, cookies collect data to enhance your experience and personalize the content and advertising you see.
Visit our Privacy Policy to learn more. By continuing to use the site, you agree to this use of cookies and data.
  • In United Kingdom
  • List of Countries
  • For 7 days
  • Water Temperature
  • Satellite Maps
  • Weather Map
  • Weather Widgets
  • user-avatar
    Login

    Hourly Weather Culfa

    Today, 24 March, Sunday

    Time Temperature Precipitation Wind Pressure Humidity
    00:00 +10°C° 0 mm 2 mps 696 mmHg 44%
    01:00 +10°C° 0 mm 2 mps 696 mmHg 47%
    02:00 +10°C° 0 mm 2 mps 696 mmHg 49%
    03:00 +10°C° 0 mm 1 mps 695 mmHg 51%
    04:00 +10°C° 0 mm 1 mps 695 mmHg 54%
    05:00 +8°C° 0 mm 2 mps 695 mmHg 56%
    06:00 +8°C° 0 mm 2 mps 695 mmHg 59%
    07:00 +10°C° 0 mm 2 mps 694 mmHg 57%
    08:00 +12°C° 0 mm 2 mps 694 mmHg 54%
    09:00 +13°C° 0 mm 3 mps 694 mmHg 50%
    10:00 +14°C° 0 mm 3 mps 693 mmHg 46%
    11:00 +15°C° 0 mm 4 mps 693 mmHg 42%
    12:00 +17°C° 0 mm 4 mps 693 mmHg 38%
    13:00 +16°C° 0 mm 5 mps 693 mmHg 37%
    14:00 +16°C° 0 mm 5 mps 692 mmHg 37%
    15:00 +17°C° 0 mm 5 mps 692 mmHg 36%
    16:00 +16°C° 0.2 mm 5 mps 692 mmHg 40%
    17:00 +15°C° 0.2 mm 5 mps 693 mmHg 44%
    18:00 +14°C° 0.2 mm 5 mps 693 mmHg 48%
    19:00 +14°C° 0.1 mm 4 mps 693 mmHg 52%
    20:00 +13°C° 0.1 mm 3 mps 693 mmHg 56%
    21:00 +13°C° 0.1 mm 2 mps 693 mmHg 60%
    22:00 +12°C° 0.5 mm 2 mps 693 mmHg 63%
    23:00 +12°C° 0.5 mm 2 mps 693 mmHg 66%

    Tomorrow, 25 March, Monday

    Time Temperature Precipitation Wind Pressure Humidity
    00:00 +10°C° 0.5 mm 2 mps 693 mmHg 68%
    01:00 +10°C° 0.2 mm 2 mps 693 mmHg 69%
    02:00 +9°C° 0.2 mm 2 mps 693 mmHg 69%
    03:00 +9°C° 0.2 mm 2 mps 693 mmHg 70%
    04:00 +9°C° 0.1 mm 2 mps 693 mmHg 70%
    05:00 +9°C° 0.1 mm 2 mps 693 mmHg 69%
    06:00 +8°C° 0.1 mm 2 mps 693 mmHg 69%
    07:00 +9°C° 0.2 mm 2 mps 693 mmHg 66%
    08:00 +9°C° 0.2 mm 2 mps 693 mmHg 63%
    09:00 +10°C° 0.2 mm 3 mps 693 mmHg 60%
    10:00 +11°C° 0.2 mm 3 mps 693 mmHg 57%
    11:00 +11°C° 0.2 mm 3 mps 693 mmHg 54%
    12:00 +12°C° 0.2 mm 4 mps 693 mmHg 51%
    13:00 +12°C° 0.3 mm 4 mps 693 mmHg 51%
    14:00 +12°C° 0.3 mm 4 mps 693 mmHg 52%
    15:00 +12°C° 0.3 mm 3 mps 693 mmHg 52%
    16:00 +11°C° 0.4 mm 3 mps 693 mmHg 54%
    17:00 +10°C° 0.4 mm 3 mps 693 mmHg 57%
    18:00 +10°C° 0.4 mm 3 mps 694 mmHg 59%
    19:00 +9°C° 0.4 mm 3 mps 694 mmHg 60%
    20:00 +9°C° 0.4 mm 3 mps 695 mmHg 61%
    21:00 +8°C° 0.4 mm 3 mps 696 mmHg 62%
    22:00 +8°C° 0.1 mm 3 mps 696 mmHg 61%
    23:00 +8°C° 0.1 mm 3 mps 696 mmHg 61%

    Day after tomorrow, 26 March, Tuesday

    Time Temperature Precipitation Wind Pressure Humidity
    00:00 +8°C° 0.1 mm 2 mps 696 mmHg 61%
    01:00 +8°C° 0.1 mm 2 mps 696 mmHg 62%
    02:00 +8°C° 0.1 mm 2 mps 696 mmHg 63%
    03:00 +8°C° 0.1 mm 2 mps 696 mmHg 64%
    04:00 +8°C° 0.2 mm 2 mps 697 mmHg 65%
    05:00 +9°C° 0.2 mm 1 mps 697 mmHg 66%
    06:00 +9°C° 0.2 mm 1 mps 697 mmHg 67%
    07:00 +9°C° 0.5 mm 1 mps 697 mmHg 67%
    08:00 +9°C° 0.5 mm 1 mps 697 mmHg 67%
    09:00 +10°C° 0.5 mm 1 mps 698 mmHg 67%
    10:00 +10°C° 0.3 mm 1 mps 697 mmHg 65%
    11:00 +11°C° 0.3 mm 1 mps 697 mmHg 63%
    12:00 +12°C° 0.3 mm 1 mps 697 mmHg 61%
    13:00 +13°C° 0 mm 1 mps 697 mmHg 58%
    14:00 +13°C° 0 mm 1 mps 696 mmHg 55%
    15:00 +14°C° 0 mm 1 mps 696 mmHg 52%
    16:00 +14°C° 0 mm 1 mps 696 mmHg 53%
    17:00 +14°C° 0 mm 1 mps 696 mmHg 53%
    18:00 +13°C° 0 mm 1 mps 696 mmHg 54%
    19:00 +13°C° 0 mm 1 mps 696 mmHg 57%
    20:00 +12°C° 0 mm 1 mps 697 mmHg 60%
    21:00 +11°C° 0 mm 1 mps 697 mmHg 63%
    22:00 +11°C° 0 mm 1 mps 697 mmHg 65%
    23:00 +10°C° 0 mm 1 mps 697 mmHg 67%

    27 March, Wednesday

    Time Temperature Precipitation Wind Pressure Humidity
    00:00 +10°C° 0 mm 1 mps 696 mmHg 69%
    01:00 +8°C° 0 mm 0 mps 696 mmHg 70%
    02:00 +8°C° 0 mm 0 mps 696 mmHg 72%
    03:00 +7°C° 0 mm 0 mps 696 mmHg 73%
    04:00 +7°C° 0 mm 0 mps 696 mmHg 74%
    05:00 +7°C° 0 mm 0 mps 697 mmHg 74%
    06:00 +7°C° 0 mm 0 mps 697 mmHg 75%
    07:00 +9°C° 0 mm 1 mps 697 mmHg 72%
    08:00 +10°C° 0 mm 1 mps 697 mmHg 69%
    09:00 +11°C° 0 mm 1 mps 697 mmHg 65%
    10:00 +12°C° 0 mm 1 mps 697 mmHg 61%
    11:00 +13°C° 0 mm 1 mps 697 mmHg 57%
    12:00 +14°C° 0 mm 1 mps 697 mmHg 52%
    13:00 +14°C° 0 mm 2 mps 697 mmHg 50%
    14:00 +15°C° 0 mm 2 mps 696 mmHg 48%
    15:00 +16°C° 0 mm 2 mps 696 mmHg 46%
    16:00 +15°C° 0 mm 2 mps 697 mmHg 46%
    17:00 +15°C° 0 mm 2 mps 697 mmHg 45%
    18:00 +15°C° 0 mm 2 mps 697 mmHg 45%
    19:00 +14°C° 0 mm 1 mps 698 mmHg 47%
    20:00 +13°C° 0 mm 1 mps 698 mmHg 49%
    21:00 +13°C° 0 mm 1 mps 699 mmHg 52%
    22:00 +12°C° 0 mm 1 mps 699 mmHg 53%
    23:00 +12°C° 0 mm 1 mps 699 mmHg 54%

    28 March, Thursday

    Time Temperature Precipitation Wind Pressure Humidity
    00:00 +11°C° 0 mm 1 mps 699 mmHg 55%
    01:00 +11°C° 0 mm 1 mps 699 mmHg 56%
    02:00 +10°C° 0 mm 1 mps 699 mmHg 57%
    03:00 +10°C° 0 mm 1 mps 698 mmHg 58%
    04:00 +10°C° 0 mm 1 mps 699 mmHg 60%
    05:00 +9°C° 0 mm 1 mps 699 mmHg 61%
    06:00 +8°C° 0 mm 0 mps 699 mmHg 62%
    07:00 +9°C° 0.1 mm 0 mps 699 mmHg 59%
    08:00 +10°C° 0.1 mm 0 mps 699 mmHg 57%
    09:00 +11°C° 0.1 mm 0 mps 700 mmHg 55%
    10:00 +12°C° 0.5 mm 1 mps 699 mmHg 56%
    11:00 +12°C° 0.5 mm 1 mps 699 mmHg 58%
    12:00 +12°C° 0.5 mm 1 mps 699 mmHg 59%
    13:00 +13°C° 0.3 mm 2 mps 699 mmHg 58%
    14:00 +13°C° 0.3 mm 2 mps 698 mmHg 57%
    15:00 +13°C° 0.3 mm 2 mps 698 mmHg 56%
    16:00 +13°C° 0.2 mm 2 mps 698 mmHg 56%
    17:00 +13°C° 0.2 mm 2 mps 698 mmHg 56%
    18:00 +13°C° 0.2 mm 2 mps 698 mmHg 56%
    19:00 +12°C° 0.1 mm 2 mps 698 mmHg 58%
    20:00 +12°C° 0.1 mm 2 mps 699 mmHg 60%
    21:00 +10°C° 0.1 mm 2 mps 699 mmHg 61%
    22:00 +10°C° 0 mm 2 mps 699 mmHg 61%
    23:00 +10°C° 0 mm 2 mps 699 mmHg 62%

    29 March, Friday

    Time Temperature Precipitation Wind Pressure Humidity
    00:00 +9°C° 0 mm 2 mps 699 mmHg 62%
    01:00 +9°C° 0.1 mm 2 mps 699 mmHg 63%
    02:00 +9°C° 0.1 mm 2 mps 699 mmHg 65%
    03:00 +9°C° 0.1 mm 2 mps 699 mmHg 66%
    04:00 +10°C° 0.1 mm 1 mps 699 mmHg 68%
    05:00 +9°C° 0.1 mm 1 mps 699 mmHg 70%
    06:00 +9°C° 0.1 mm 1 mps 699 mmHg 72%
    07:00 +10°C° 0.1 mm 1 mps 700 mmHg 68%
    08:00 +11°C° 0.1 mm 1 mps 700 mmHg 65%
    09:00 +11°C° 0.1 mm 0 mps 700 mmHg 62%
    10:00 +13°C° 0.1 mm 1 mps 700 mmHg 59%
    11:00 +13°C° 0.1 mm 1 mps 699 mmHg 56%
    12:00 +14°C° 0.1 mm 1 mps 699 mmHg 53%
    13:00 +15°C° 0.1 mm 1 mps 699 mmHg 51%
    14:00 +15°C° 0.1 mm 2 mps 698 mmHg 48%
    15:00 +16°C° 0.1 mm 3 mps 698 mmHg 46%
    16:00 +14°C° 0 mm 3 mps 698 mmHg 47%
    17:00 +14°C° 0 mm 3 mps 698 mmHg 47%
    18:00 +14°C° 0 mm 3 mps 698 mmHg 47%
    19:00 +13°C° 0 mm 3 mps 698 mmHg 50%
    20:00 +13°C° 0 mm 3 mps 698 mmHg 53%
    21:00 +12°C° 0 mm 3 mps 698 mmHg 56%
    22:00 +12°C° 0.1 mm 3 mps 698 mmHg 57%
    23:00 +11°C° 0.1 mm 3 mps 698 mmHg 59%
    Show more